weather.gov     
National Weather Service

Regional Weather Roundup
NWS Homepage
This page is being discontinued on March 12, 2014.
The same data is available at this site. Please update your bookmarks.
Thank you, and we apologize for the inconvenience.
Please send an email to SR-SRH.Webmaster@noaa.gov with any concerns.


Current Version
Previous Version:    01  02  03  04  05  06  07  08  09  10  11  12  13  14  15  16  17  18  19  20  21  22  23  24  25  26  
[Printable]
289
ASUS41 KBOX 202210
RWRBOX

REGIONAL WEATHER ROUNDUP
NATIONAL WEATHER SERVICE TAUNTON MA
600 PM EDT WED AUG 20 2014

NOTE:  "FAIR" INDICATES FEW OR NO CLOUDS BELOW 12,000 FEET WITH NO
SIGNIFICANT WEATHER AND/OR OBSTRUCTIONS TO VISIBILITY.  THE FOLLOWING
OBSERVATION LOCATIONS DO NOT REPORT PRESENT WEATHER...PROVINCETOWN...
SMITHFIELD...BLOCK ISLAND...KEENE...AND OXFORD.

MAZALL-202300-
EASTERN MASSACHUSETTS

CITY           SKY/WX    TMP DP  RH WIND       PRES   REMARKS
BOSTON         MOSUNNY   69  61  75 E7        30.04R
BEVERLY        SUNNY     71  54  54 SE5       30.04R
LAWRENCE       SUNNY     75  57  53 E7        30.05R
BEDFORD        SUNNY     73  52  47 E8        30.02R
BLUE HILL      NOT AVBL
NORWOOD        SUNNY     76  50  40 NE7       30.02R
MARSHFIELD     SUNNY     70  63  78 E6        30.05R
PLYMOUTH       SUNNY     72  59  63 NE7       30.03R
TAUNTON        SUNNY     76  49  38 E6        30.01R
NEW BEDFORD    SUNNY     73  61  65 SE8       30.01R
$$

MAZALL-202300-
CAPE COD AND THE ISLANDS

CITY           SKY/WX    TMP DP  RH WIND       PRES   REMARKS
FALMOUTH       SUNNY     72  55  56 NE9       30.02S
HYANNIS        MOSUNNY   72  58  61 NE8       30.00S
CHATHAM        SUNNY     70  58  65 E9        30.03S
PROVINCETOWN   SUNNY     70  59  68 MISG      30.03S
NANTUCKET      MOSUNNY   69  60  73 NE10      30.01R
MARTHAS VNYRD  MOSUNNY   70  57  63 E8        30.01S
$$

MAZALL-202300-
CENTRAL AND WESTERN MASSACHUSETTS

CITY           SKY/WX    TMP DP  RH WIND       PRES   REMARKS
WORCESTER      MOSUNNY   76  56  49 E5        30.04R
FITCHBURG      SUNNY     79  58  48 E10       30.02R
ORANGE         PTSUNNY   81  59  47 SE9       30.00R
SPRINGFIELD    MOSUNNY   83  63  51 SE3       29.98R
WESTFIELD      MOSUNNY   81  60  48 S7        29.99R
NORTH ADAMS    PTSUNNY   76  65  68 SE7       29.99R
PITTSFIELD     MOSUNNY   74  65  73 E5        30.00R
$$

RIZALL-202300-
RHODE ISLAND

CITY           SKY/WX    TMP DP  RH WIND       PRES   REMARKS
PROVIDENCE     MOSUNNY   73  60  63 VRB7      30.02R
NEWPORT        SUNNY     70  59  68 S6        30.02R
BLOCK ISLAND   SUNNY     72  57  60 E6        30.02S
SMITHFIELD     MOSUNNY   73  59  60 S3        30.02S
WESTERLY       MOSUNNY   72  58  61 S6        30.03R
$$

CTZALL-202300-
CONNECTICUT

CITY           SKY/WX    TMP DP  RH WIND       PRES   REMARKS
BRADLEY INTL   PTSUNNY   83  57  41 S5        29.98R
HARTFORD       SUNNY     80  61  52 SE6       29.98R
BRIDGEPORT     SUNNY     78  58  49 SE9       30.00R
DANBURY        SUNNY     78  63  59 S6        30.01R
GROTON         SUNNY     71  62  73 SE7       30.01R
NEW HAVEN      SUNNY     79  59  50 SE6       30.00R
CHESTER        FAIR      77  55  47 S5        30.02S
MERIDEN        SUNNY     80  55  42 S8        29.99R
WILLIMANTIC    PTSUNNY   78  61  55 S6        30.00R
OXFORD         MOSUNNY   79  61  53 S7        30.03S
$$

MEZ002-015-021-024-NHZ003-005-008-011-012-014-VTZ005-008-202300-
NORTHERN NEW ENGLAND

CITY           SKY/WX    TMP DP  RH WIND       PRES   REMARKS
PORTLAND ME    MOSUNNY   71  56  58 S6        30.04R
BANGOR ME      PTSUNNY   78  56  46 W5        30.02R
CONCORD NH     MOSUNNY   76  59  55 SE8       30.02R
MANCHESTER NH  MOSUNNY   78  57  48 E9        30.01R
NASHUA NH      SUNNY     79  57  46 SE9       30.03R
PORTSMOUTH NH  PTSUNNY   71  57  61 SE8       30.03S
JAFFREY NH     SUNNY     77  55  46 E5        30.05R
KEENE NH       PTSUNNY   79  57  47 CALM      30.01S
BURLINGTON VT  PTSUNNY   82  58  43 SE9       29.97R
MT. WASHINGTON NOT AVBL
$$

NYZ052-076-202300-
EASTERN NEW YORK

CITY           SKY/WX    TMP DP  RH WIND       PRES   REMARKS
ALBANY         PTSUNNY   81  65  58 S10       29.95S
NEW YORK CITY  MOSUNNY   80  53  39 S12       29.99R
$$

ANZALL-202300-
MARINE OBSERVATIONS

STATION/POSITION TIME  TEMP    WIND        PRES    VSBY  WAVE
                       AIR SEA DIR/SP/G                  HT/PER
                 (UTC) (F)     (DEG/KT/KT) (MB)    (MI)  (FT/S)
BOSTON BUOY      2150   67 67   80/  4/  4 1017.4R         1/ 6
BUZZARDS BAY     2100          140/  6/  7 1017.0S
NANTUCKET SOUND  2150   67 72   60/ 12/ 14 1016.0F         1
MASS BAY-STELLWA 2104   68 69  130/  4/  4   N/A    1 7/8  1/ 6
ISLE OF SHOALS   2200   66     160/  5/  5 1017.0R
S OF BLOCK IS    2108      71                N/A           2/11
$$

......................KEY.........................
  SKY/WX - SKY CONDITION/PRESENT WEATHER
  TMP    - TEMPERATURE IN FAHRENHEIT
  DWPT   - DEWPOINT IN FAHRENHEIT
  RH     - RELATIVE HUMIDITY IN PERCENT
  WIND   - DIRECTION AND SPEED IN MPH
  PRES   - MEAN SEA LEVEL PRESSURE IN INCHES OF HG
  WCI    - WIND CHILL INDEX
  VSB    - VISIBILITY IN MILES
  HX     - HEAT INDEX
  TC     - TEMPERATURE IN CELSIUS
  VRB    - VARIABLE WIND DIRECTION
  N/A    - NOT AVAILABLE




U.S. Dept. of Commerce
NOAA National Weather Service
1325 East West Highway
Silver Spring, MD 20910
E-mail: w-nws.webmaster@noaa.gov
Page last modified: May 16, 2007
NATIONAL WEATHER SERVICE: for Safety, for Work, for Fun - FOR LIFE